| time (UTC) | temp F | wind direction | speed knots | gust knots | rain 1hr in | rain 24hr in | rain mn in | humidity % | barometer mb |
| 20260504031710 | 61 | 76 | 0.9 | 2.6 | 0.00 | 0.00 | 0.00 | 50 | 1006.1 |
| 20260504030711 | 61 | 65 | 1.7 | 2.6 | 0.00 | 0.00 | 0.00 | 50 | 1006.1 |
| 20260504025710 | 61 | 195 | 0.0 | 0.0 | 0.00 | 0.00 | 0.00 | 51 | 1006.3 |
| 20260504023710 | 62 | 195 | 0.0 | 1.7 | 0.00 | 0.00 | 0.00 | 48 | 1006.4 |
| 20260504022710 | 62 | 195 | 0.0 | 1.7 | 0.00 | 0.00 | 0.00 | 46 | 1006.4 |
| 20260504021711 | 63 | 195 | 0.0 | 0.0 | 0.00 | 0.00 | 0.00 | 45 | 1006.4 |
| 20260504020711 | 64 | 195 | 0.0 | 1.7 | 0.00 | 0.00 | 0.00 | 45 | 1006.3 |
| 20260504015710 | 65 | 195 | 0.9 | 1.7 | 0.00 | 0.00 | 0.00 | 43 | 1006.5 |
| 20260504014710 | 66 | 195 | 0.9 | 1.7 | 0.00 | 0.00 | 0.00 | 40 | 1006.5 |
| 20260504013710 | 67 | 195 | 0.9 | 1.7 | 0.00 | 0.00 | 0.00 | 38 | 1006.5 |
| 20260504012710 | 67 | 195 | 0.0 | 2.6 | 0.00 | 0.00 | 0.00 | 38 | 1006.7 |
| 20260504011710 | 69 | 202 | 0.9 | 2.6 | 0.00 | 0.00 | 0.00 | 36 | 1006.7 |
| 20260504010711 | 70 | 192 | 1.7 | 2.6 | 0.00 | 0.00 | 0.00 | 34 | 1006.9 |
| 20260504005711 | 71 | 229 | 1.7 | 5.2 | 0.00 | 0.00 | 0.00 | 34 | 1007.1 |
| 20260504004710 | 71 | 205 | 1.7 | 5.2 | 0.00 | 0.00 | 0.00 | 35 | 1007.1 |
| 20260504002710 | 72 | 211 | 2.6 | 4.3 | 0.00 | 0.00 | 0.00 | 32 | 1007.2 |
| 20260504001711 | 73 | 182 | 0.0 | 1.7 | 0.00 | 0.00 | 0.00 | 29 | 1007.3 |
| 20260503235710 | 73 | 306 | 0.0 | 2.6 | 0.00 | 0.00 | 0.00 | 31 | 1007.6 |
| 20260503234711 | 73 | 253 | 0.9 | 2.6 | 0.00 | 0.00 | 0.00 | 30 | 1007.5 |
| 20260503232710 | 74 | 202 | 2.6 | 7.8 | 0.00 | 0.00 | 0.00 | 31 | 1007.7 |
| 20260503231711 | 74 | 265 | 3.5 | 6.1 | 0.00 | 0.00 | 0.00 | 32 | 1007.6 |
| 20260503225710 | 75 | 302 | 2.6 | 4.3 | 0.00 | 0.00 | 0.00 | 36 | 1007.7 |
| 20260503224710 | 74 | 201 | 0.0 | 2.6 | 0.00 | 0.00 | 0.00 | 41 | 1007.8 |
| 20260503222711 | 75 | 0 | 1.7 | 6.1 | 0.00 | 0.00 | 0.00 | 34 | 1007.8 |
| 20260503220711 | 74 | 11 | 2.6 | 8.7 | 0.00 | 0.00 | 0.00 | 32 | 1008.0 |
| 20260503215710 | 74 | 295 | 1.7 | 7.0 | 0.00 | 0.00 | 0.00 | 31 | 1008.3 |
| 20260503213710 | 76 | 304 | 4.3 | 10.4 | 0.00 | 0.00 | 0.00 | 31 | 1008.6 |
| 20260503212711 | 74 | 69 | 1.7 | 2.6 | 0.00 | 0.00 | 0.00 | 32 | 1008.7 |
| 20260503211710 | 74 | 21 | 1.7 | 10.4 | 0.00 | 0.00 | 0.00 | 31 | 1008.8 |
| 20260503203711 | 73 | 334 | 2.6 | 10.4 | 0.00 | 0.00 | 0.00 | 35 | 1009.3 |
| 20260503201710 | 73 | 67 | 1.7 | 6.1 | 0.00 | 0.00 | 0.00 | 30 | 1009.5 |
| 20260503200711 | 73 | 317 | 4.3 | 7.8 | 0.00 | 0.00 | 0.00 | 33 | 1009.7 |
| 20260503195711 | 74 | 288 | 2.6 | 10.4 | 0.00 | 0.00 | 0.00 | 35 | 1009.9 |
| 20260503192710 | 74 | 306 | 5.2 | 11.3 | 0.00 | 0.00 | 0.00 | 34 | 1010.2 |
| 20260503191711 | 73 | 80 | 3.5 | 7.8 | 0.00 | 0.00 | 0.00 | 33 | 1010.2 |
| 20260503190710 | 73 | 53 | 3.5 | 8.7 | 0.00 | 0.00 | 0.00 | 33 | 1010.5 |
| 20260503185710 | 73 | 13 | 4.3 | 8.7 | 0.00 | 0.00 | 0.00 | 33 | 1010.6 |
| 20260503184710 | 73 | 32 | 8.7 | 11.3 | 0.00 | 0.00 | 0.00 | 38 | 1010.7 |
| 20260503183711 | 72 | 292 | 6.1 | 12.2 | 0.00 | 0.00 | 0.00 | 33 | 1010.8 |
| 20260503182710 | 73 | 301 | 6.1 | 10.4 | 0.00 | 0.00 | 0.00 | 32 | 1010.8 |
| 20260503181710 | 72 | 17 | 4.3 | 10.4 | 0.00 | 0.00 | 0.00 | 37 | 1010.9 |
| 20260503180710 | 72 | 57 | 1.7 | 10.4 | 0.00 | 0.00 | 0.00 | 33 | 1011.1 |
| 20260503175711 | 72 | 30 | 6.1 | 11.3 | 0.00 | 0.00 | 0.00 | 35 | 1011.3 |
| 20260503174710 | 71 | 292 | 1.7 | 8.7 | 0.00 | 0.00 | 0.00 | 35 | 1011.5 |
| 20260503172711 | 70 | 333 | 4.3 | 10.4 | 0.00 | 0.00 | 0.00 | 38 | 1011.6 |
| 20260503171710 | 71 | 46 | 5.2 | 10.4 | 0.00 | 0.00 | 0.00 | 36 | 1011.6 |
| 20260503170710 | 70 | 16 | 2.6 | 8.7 | 0.00 | 0.00 | 0.00 | 39 | 1011.7 |
| 20260503150711 | 66 | 49 | 5.2 | 10.4 | 0.00 | 0.00 | 0.00 | 42 | 1012.2 |
| 20260503110710 | 50 | 278 | 0.9 | 2.6 | 0.00 | 0.00 | 0.00 | 63 | 1010.3 |
| 20260503080711 | 55 | 217 | 8.7 | 13.9 | 0.00 | 0.00 | 0.00 | 44 | 1010.3 |
| 20260503072710 | 55 | 220 | 8.7 | 13.9 | 0.00 | 0.00 | 0.00 | 43 | 1010.6 |
| 20260503070710 | 56 | 215 | 8.7 | 17.4 | 0.00 | 0.00 | 0.00 | 41 | 1010.9 |
| 20260503054710 | 58 | 213 | 9.6 | 14.8 | 0.00 | 0.00 | 0.00 | 38 | 1011.1 |
| 20260503053710 | 59 | 153 | 9.6 | 14.8 | 0.00 | 0.00 | 0.00 | 37 | 1011.1 |
| 20260503052710 | 59 | 183 | 7.8 | 21.7 | 0.00 | 0.00 | 0.00 | 37 | 1011.2 |
| 20260503051711 | 59 | 212 | 9.6 | 15.6 | 0.00 | 0.00 | 0.00 | 36 | 1011.3 |
| 20260503050711 | 59 | 185 | 13.0 | 20.0 | 0.00 | 0.00 | 0.00 | 36 | 1011.2 |
| 20260503045710 | 60 | 184 | 10.4 | 17.4 | 0.00 | 0.00 | 0.00 | 36 | 1011.4 |
| 20260503044710 | 60 | 196 | 9.6 | 18.2 | 0.00 | 0.00 | 0.00 | 36 | 1011.4 |
| 20260503043710 | 59 | 199 | 7.0 | 14.8 | 0.00 | 0.00 | 0.00 | 36 | 1011.5 |
| 20260503041710 | 59 | 194 | 8.7 | 15.6 | 0.00 | 0.00 | 0.00 | 35 | 1011.5 |
| 20260503040711 | 59 | 190 | 8.7 | 13.0 | 0.00 | 0.00 | 0.00 | 36 | 1011.7 |
| 20260503034710 | 60 | 191 | 7.8 | 14.8 | 0.00 | 0.00 | 0.00 | 36 | 1012.1 |
| 20260503033711 | 60 | 178 | 7.8 | 12.2 | 0.00 | 0.00 | 0.00 | 35 | 1012.1 |
| 20260503032710 | 60 | 225 | 8.7 | 12.2 | 0.00 | 0.00 | 0.00 | 36 | 1012.2 |